Current weather by "City, St" or "zip code"  
 

Current Conditions: LaGrange-Callaway Airport, GA

Fair


78.0 F

Last Updated on Oct 29 2020, 4:55 pm EDT
Humidity: 40%
Wind Speed: W 15.0 G 23.0 mph
Barometer 29.66 in
Dewpoint: 51.8 F
Visibility: 10.00 mi
Precip: --
Heat Index: NA
Wind Chill: NA
Current conditions at:

LaGrange-Callaway Airport, GA (KLGC)

Lat: 33.00617 Lon: 85.06609

Local Radar Image active severe weather and emergency alerts image image weather storm and storm spotter reports image weather observation monitoring service image
Local
Radar
Active
Alerts
Storm Reports Obs
Monitoring

Sign-up For Email & Text Message Weather Alert Notification Services



Advertise Here

Observation History for LaGrange-Callaway Airport, GA


Time Wind
(mph)
Vis
(mi)
Weather Precip (in) Temperature (F) Relative
Humidity
Wind
Chill
(F)
Heat
Index
(F)
Pressure
Air Dwpt altimeter
(in)
sea level
(mb)
Rmks
4:55 pm EDT W 15.0 G 23.0 10.00 Fair -- 78.0 51.8 40% NA NA 29.66 M
3:55 pm EDT W 16.1 G 24.2 10.00 Fair -- 81.0 54.9 41% NA 81 29.66 M
2:55 pm EDT SW 10.4 G 26.5 10.00 Partly Cloudy -- 81.0 64.4 58% NA 83 29.66 M
1:55 pm EDT SW 9.2 G 19.6 10.00 Mostly Cloudy -- 82.0 67.3 62% NA 85 29.69 M
12:55 pm EDT SW 10.4 G 17.3 10.00 Overcast -- 78.0 68.7 73% NA NA 29.73 M
11:55 am EDT SW 5.8 10.00 Overcast -- 76.0 69.6 79% NA NA 29.75 M
10:55 am EDT SW 8.1 7.00 Overcast -- 75.0 68.7 80% NA NA 29.76 M
9:55 am EDT SW 5.8 10.00 Overcast -- 75.0 69.3 83% NA NA 29.77 M
8:55 am EDT W 8.1 10.00 Overcast -- 74.0 68.5 82% NA NA 29.76 M
7:55 am EDT SW 11.5 G 19.6 10.00 Overcast -- 74.0 68.9 83% NA NA 29.74 M
6:55 am EDT SW 11.5 G 23.0 10.00 Overcast -- 76.0 68.9 79% NA NA 29.71 M
5:55 am EDT SW 12.7 G 32.2 10.00 Overcast -- 76.0 71.1 84% NA NA 29.66 M
4:55 am EDT SW 16.1 G 33.4 10.00 Overcast -- 75.0 73.4 94% NA NA 29.61 M
3:55 am EDT S 21.9 G 34.5 4.00 Light Rain and Breezy -- 73.0 72.0 96% NA NA 29.58 M
2:15 am EDT SE 18.4 G 26.5 5.00 Rain -- 73.0 68.9 86% NA NA 29.67 M
1:55 am EDT SE 17.3 G 25.3 10.00 Rain -- 74.0 68.9 84% NA NA 29.70 M
12:55 am EDT SE 15.0 G 20.7 10.00 Mostly Cloudy -- 75.0 68.2 80% NA NA 29.77 M
11:55 pm EDT SE 9.2 G 16.1 10.00 Fair -- 74.0 68.4 81% NA NA 29.82 M
10:55 pm EDT SE 10.4 G 16.1 10.00 Fair -- 75.0 69.3 82% NA NA 29.87 M
9:55 pm EDT SE 6.9 10.00 Fair -- 75.0 71.1 89% NA NA 29.89 M
8:55 pm EDT SE 4.6 10.00 Fair -- 75.0 72.3 91% NA NA 29.91 M
7:55 pm EDT N 0.0 10.00 Partly Cloudy -- 75.0 73.2 94% NA NA 29.91 M
6:55 pm EDT N 0.0 10.00 Mostly Cloudy -- 76.0 72.5 90% NA NA 29.92 M
5:55 pm EDT N 0.0 10.00 Fair -- 77.0 72.1 85% NA NA 29.94 M

Regional Weather Observation


Carrollton West Georgia Regional Airport, GA (KCTJ)

Fair
75.0 F

Anniston Metro Airport, AL (KANB)

A Few Clouds and Breezy
73.0 F

Newnan, Newnan Coweta County Airport, GA (KCCO)

Fair
81.0 F

Alexander City, Thomas C Russell Field Airport, AL (KALX)

Fair
74.0 F

Atlanta Regional Airport-Falcon Field, GA (KFFC)

Fair
80.0 F

Auburn-Opelika Airport, AL (KAUO)

A Few Clouds
77.0 F